Home > Weather > Elbląg > Past weeks

Flag for Poland Past Weather in Elbląg, Poland — Yesterday and Last 2 Weeks

Now
72 °F

Scattered clouds.


Feels Like: 70 °F
Forecast: 57 / 72 °F
Wind: 2 mph from South

Location: Hel

Current Time: Jun 26, 2016 at 10:13:02 AM

Latest Report: Jun 26, 2016 at 9:00 AM


Visibility: 9 mi

Pressure: 29.86 "Hg

Humidity: 88%

Dew Point: 69 °F

Location of ElblągLocation

Past Weather in Elbląg — Graph

°F

Elbląg Temperature Yesterday

Maximum temperature yesterday: 85 °F (at 2:00 PM)
Minimum temperature yesterday: 66 °F (at 5:00 AM)
Average temperature yesterday: 74 °F

High & Low Weather Summary for the Past Weeks

 TemperatureHumidityPressure
High85 °F (Jun 25, 2:00 PM)99% (Jun 26, 6:00 AM)30.31 "Hg (Jun 26, 6:00 AM)
Low43 °F (Jun 12, 2:00 AM)52% (Jun 12, 4:00 PM)29.29 "Hg (Jun 17, 6:00 PM)
Average62 °F80%29.91 "Hg
* Reported Jun 11 8:00 AM — Jun 26 8:00 AM, Elbląg, Weather by CustomWeather, © 2016

Note: Actual official high and low records may vary slightly from our data, if they occured in-between our weather recording intervals... More about our weather records

Advertising

Elbląg Weather History for the Previous 24 Hours

Scroll right to see more
 ConditionsComfort  
Time TempWeatherWind HumidityBarometerVisibility
8:00 AM
Sun, Jun 26
69 °FScattered clouds.3 mph95%29.86 "Hg9 mi
7:00 AM68 °FScattered clouds.3 mph98%29.86 "Hg11 mi
6:00 AM66 °FScattered clouds.3 mph99%29.86 "Hg11 mi
5:00 AM65 °FScattered clouds.3 mph97%29.83 "Hg6 mi
4:00 AM65 °FFog.3 mph97%29.82 "Hg3 mi
3:00 AM66 °FFog.3 mph97%29.83 "Hg4 mi
2:00 AM66 °FOvercast.5 mph97%29.83 "Hg4 mi
1:00 AM66 °FLight rain. Overcast.5 mph96%29.82 "Hg3 mi
12:00 AM68 °FSprinkles. Overcast.3 mph96%29.88 "Hg2 mi
11:00 PM
Sat, Jun 25
68 °FThundershowers. Overcast.3 mph96%29.91 "Hg2 mi
10:00 PM68 °FThundershowers. Overcast.2 mph95%29.86 "Hg2 mi
9:00 PM70 °FThunderstorms. Overcast.6 mph86%29.84 "Hg9 mi
8:00 PM73 °FThundershowers. Overcast.3 mph82%29.83 "Hg7 mi
7:00 PM72 °FThunderstorms. Partly sunny.3 mph86%29.84 "Hg11 mi
6:00 PM76 °FThunderstorms. Overcast.7 mph78%29.89 "Hg11 mi
5:00 PM79 °FOvercast.5 mph71%29.88 "Hg10 mi
4:00 PM80 °FPartly sunny.5 mph69%29.87 "Hg10 mi
3:00 PMN/APassing clouds.18 mphN/AN/A2 mi
2:00 PM85 °FPassing clouds.6 mph65%29.93 "Hg11 mi
1:00 PM83 °FPassing clouds.5 mph66%29.95 "Hg11 mi
12:00 PM83 °FSunny.5 mph66%29.96 "Hg12 mi
11:00 AM81 °FSunny.3 mph66%29.97 "Hg12 mi
10:00 AM79 °FSunny.2 mph70%29.98 "Hg12 mi
Weather by CustomWeather, © 2016

See weather overviewHow to use our weather pages